Regional Weather Roundup
Issued by NWS

Home | Current Version | Previous Version | Text Only | Print | Product List | Glossary On
Versions: 1 2 3 4 5 6 7 8 9 10 11 12 13 14 15 16 17 18 19 20 21 22 23 24 25 26 27 28 29 30 31 32 33 34 35 36 37 38 39 40 41 42 43 44 45 46 47 48 49 50
000
ASUS42 KTBW 271816
RWRFL
FLORIDA REGIONAL WEATHER ROUNDUP
NATIONAL WEATHER SERVICE TAMPA BAY RUSKIN FL
200 PM EDT WED MAY 27 2015

NOTE: "FAIR" INDICATES FEW OR NO CLOUDS BELOW 12,000 FEET WITH NO
SIGNIFICANT WEATHER AND/OR OBSTRUCTIONS TO VISIBILITY.


FLZ001>010-012>015-112-114-115-271900-
PANHANDLE FLORIDA

CITY           SKY/WX    TMP DP  RH WIND       PRES   REMARKS
PENSACOLA      PTSUNNY   82  75  79 S12       30.15F
PENSACOLA NAS  PTSUNNY   84  77  79 SE12      30.15F
MILTON NAS     PTSUNNY   86  72  62 S13       30.14  THUNDER
CRESTVIEW      LGT RAIN  81  73  76 E12       30.17F
DUKE FIELD     PTSUNNY   86  70  58 S12       30.15F THUNDER
VALPARAISO     PTSUNNY   85  73  67 SE13      30.15F
MARY ESTHER    FAIR      83  74  73 SE13G20   30.14
TRI COUNTY     FAIR      85  72  65 VRB6      30.17F
PANAMA CITY    MOCLDY    85  72  65 E10G18    30.15F
TYNDALL AFB    PTSUNNY   86  75  70 S14       30.15F THUNDER HX  95
APALACHICOLA   PTSUNNY   87  73  62 SE10      30.17F

STATION/POSITION SKY/WX   TEMP    WIND        PRES    WAVE   SWELL
                          AIR SEA DIR/SP/G            HT/PER HT/PER
                          (F)     (DEG/KT/KT) (MB)    (FT/S) (FT/S)
30.1N   87.6W              80 81  130/ 10/ 10 1020.2F   3/ 6   3/ 6
29.2N   88.2W              80 81  140/ 10/ 10 1021.0F   4/ 8   3/ 8
28.8N   86.0W              81 82  120/  6/  8 1021.6F   4/ 6   3/ 6
PANAMA CITY BEAC           81 81  160/ 11/ 12 1022.0F
CAPE SAN BLAS    NOT AVBL
TOWER C                    79     120/ 11/ 11 1021.5F
28.5N   84.5W              80 81  120/ 12/ 12 1021.6R   4/ 6   3/ 6

$$
FLZ011-016>038-118-127-128-134-139-239-271900-
NORTH FLORIDA

CITY           SKY/WX    TMP DP  RH WIND       PRES   REMARKS
MARIANNA       PTSUNNY   86  73  65 MISG      30.16F
TALLAHASSEE    PTSUNNY   83  71  67 VRB5      30.17F THUNDER
PERRY          MOSUNNY   88  65  46 E3        30.19F
CROSS CITY       N/A     90  67  46 E6        30.18F
LAKE CITY      PTSUNNY   86  68  54 SE5       30.19F
GAINESVILLE    MOSUNNY   87  65  47 NE7G17    30.19F
MAYPORT NAS    PTSUNNY   84  65  52 E10       30.23S
JACKSONVILLE   PTSUNNY   84  65  52 E9G20     30.21F
JAX NAS        PTSUNNY   88  62  41 E12       30.21F
JAX CRAIG      MOSUNNY   83  64  52 E14       30.22F
JAX CECIL      MOSUNNY   86  63  45 VRB5      30.20F
FERNANDINA BEA FAIR      88  68  51 SE9       30.22F
ST AUGUSTINE   MOSUNNY   82  68  62 E12       30.22F

STATION/POSITION SKY/WX   TEMP    WIND        PRES    WAVE   SWELL
                          AIR SEA DIR/SP/G            HT/PER HT/PER
                          (F)     (DEG/KT/KT) (MB)    (FT/S) (FT/S)
SHELL POINT                82     150/  9/ 11   N/A
KEATON BEACH               80     210/  6/  8 1022.2F
CEDAR KEY                  80     170/  4/  6 1022.3F
FERNANDINA                 80 81   70/  5/ 10 1023.5S
30.7N   81.3W                 80                N/A     3/ 7
MAYPORT                    79 81   90/  9/ 13 1024.2R
31.4N   80.9W              78 79  130/  4/  6 1024.5F   3/ 7   3/ 7
ST AUGUSTINE               78 81   90/  9/ 10 1024.0F

$$
FLZ040-043>046-052-053-057-058-063-144-271900-
INTERIOR CENTRAL FLORIDA

CITY           SKY/WX    TMP DP  RH WIND       PRES   REMARKS
THE VILLAGES     N/A     86  66  51 E8        30.07F
LEESBURG       MOSUNNY   89  62  40 E8        30.18F
SANFORD        MOSUNNY   88  62  41 E13       30.18F
ORLANDO EXEC   PTSUNNY   86  63  45 E7G20     30.17F
ORLANDO INTL   PTSUNNY   90  64  42 E13G20    30.17F
KISSIMMEE      PTSUNNY   88  64  45 E12G21    30.17F
WINTER HAVEN   PTSUNNY   87  64  46 NE13G18   30.17F
LAKELAND       PTSUNNY   88  66  48 E12G20    30.16F
OKEECHOBEE     MOSUNNY   88  61  40 E10G16    30.15F

$$
FLZ041-047-054-059-064-141-147-271900-
EAST CENTRAL FLORIDA

CITY           SKY/WX    TMP DP  RH WIND       PRES   REMARKS
ORMOND BEACH   MOSUNNY   82  64  54 E9        30.21S
DAYTONA BEACH  PTSUNNY   84  66  54 E10G20    30.20F
DELAND           N/A     84  63  48 E9G18     30.20F
JFK SPACE CTR  PTSUNNY   85  66  52 E9        30.18F
TITUSVILLE     MOSUNNY   84  64  51 E12       30.19F
CAPE CANAVERAL MOSUNNY   82  68  61 E10G16    30.18F
PATRICK AFB    MOSUNNY   84  68  57 E12       30.18F
MELBOURNE      MOSUNNY   85  66  53 E13       30.18F
VERO BEACH     MOSUNNY   86  64  47 E15       30.18F
FT PIERCE      MOSUNNY   84  67  56 E16       30.16F
STUART         PTSUNNY   82  64  54 E14G21    30.18

STATION/POSITION SKY/WX   TEMP    WIND        PRES    WAVE   SWELL
                          AIR SEA DIR/SP/G            HT/PER HT/PER
                          (F)     (DEG/KT/KT) (MB)    (FT/S) (FT/S)
28.5N   80.2W              80 82   90/ 12/ 14 1022.8F
28.9N   78.5W              78 81   80/ 14/ 17 1023.3F
TRIDENT PIER               84 83   90/  6/ 10 1023.1F
28.4N   80.5W                 82                N/A     3/ 5
27.5N   80.2W                 82                N/A     4/ 8

$$
FLZ050-056-061-142-242-148-248-149-249-151-251-155-255-
160-260-271900-
WEST CENTRAL FLORIDA

CITY           SKY/WX    TMP DP  RH WIND       PRES   REMARKS
CRYSTAL RIVER  CLOUDY    86  64  48 E6        30.17F
INVERNESS      FAIR      88  64  45 NE3       30.18F
BROOKSVILLE    PTSUNNY   87  65  47 VRB7      30.17F
CLEARWATER     MOSUNNY   87  68  52 VRB5      30.15F
TAMPA INTL     PTSUNNY   88  63  43 VRB5      30.15F
TAMPA EXEC     PTSUNNY   88  66  48 E5        30.16F
PLANT CITY     PTSUNNY   88  68  51 E8        30.17F
MACDILL AFB    PTSUNNY   88  69  52 E8        30.14F
PETER O KNIGHT PTSUNNY   88  64  45 NE5       30.15F
ST PETERSBURG  SUNNY     86  66  51 E9        30.14F
SARASOTA       PTSUNNY   87  63  44 E7        30.13F
VENICE         FAIR      86  64  48 NE10G16   30.13F

STATION/POSITION SKY/WX   TEMP    WIND        PRES    WAVE   SWELL
                          AIR SEA DIR/SP/G            HT/PER HT/PER
                          (F)     (DEG/KT/KT) (MB)    (FT/S) (FT/S)
CEDAR KEY                  80     170/  4/  6 1022.3F
28.5N   84.5W              80 81  120/ 12/ 12 1021.6R   4/ 6   3/ 6
27.3N   84.2W                 82                N/A     3/ 5
CLEARWATER BEACH           83 83  110/  6/  9 1021.7F
MIDDLE TAMPA BAY           83     120/  6/  8 1021.7F
VENICE                     86 85   90/ 11/ 13 1019.8F

$$
FLZ066-069-070-075>078-162-262-165-265-271900-
SOUTHWEST FLORIDA AND KEYS

CITY           SKY/WX    TMP DP  RH WIND       PRES   REMARKS
PUNTA GORDA    MOSUNNY   90  63  40 E13G20    30.13F
FT MYERS       PTSUNNY   88  63  43 NE8G18    30.11F
SOUTHWEST INTL MOSUNNY   88  63  43 E12       30.11F
NAPLES         MOSUNNY   89  64  43 NE5       30.10F
MARCO ISLAND     N/A     91  63  38 N8        30.10F
IMMOKALEE      CLEAR    N/A N/A N/A E7G16     30.12F
MARATHON       MOSUNNY   89  72  56 E9G18     30.10F HX  96
KEY WEST NAS   PTSUNNY   88  72  58 E17G23    30.09F
KEY WEST INTL  MOSUNNY   86  72  62 E13       30.10F

STATION/POSITION SKY/WX   TEMP    WIND        PRES    WAVE   SWELL
                          AIR SEA DIR/SP/G            HT/PER HT/PER
                          (F)     (DEG/KT/KT) (MB)    (FT/S) (FT/S)
VENICE                     86 85   90/ 11/ 13 1019.8F
NAPLES                     85 85  100/  5/  8 1020.1F
26.0N   85.6W              81 82  100/  8/ 10 1019.9R   3/ 6   2/ 6
DRY TORTUGAS               82      80/ 10/ 11 1019.8R
NW FL BAY                  83     110/ 14/ 17 1019.9
SAND KEY                   81     100/ 15/ 17 1019.1F
SOMBRERO KEY               82      90/ 16/ 17 1019.6F
LONG KEY                   81 84  100/ 14/ 17 1020.1F
MOLASSES REEF              80 83   90/ 12/ 14 1019.4F

$$
FLZ067-068-071>074-168-172>174-271900-
SOUTHEAST FLORIDA

CITY           SKY/WX    TMP DP  RH WIND       PRES   REMARKS
W PALM BEACH   MOSUNNY   86  65  49 E14G20    30.16S
FT LAUDER-EXEC MOSUNNY   87  68  52 E17G26    30.13F
FT LAUDERDALE  MOSUNNY   86  68  54 E17       30.13F
POMPANO BEACH  SUNNY     86  67  52 E16       30.13F
PEMBROKE PINES MOSUNNY   86  66  51 E14       30.14F
OPA LOCKA      PTSUNNY   85  67  54 E16G23    30.13F
MIAMI          MOSUNNY   86  67  52 E14G22    30.12F
WEST KENDALL   MOSUNNY   87  69  54 E15G24    30.12F
HOMESTEAD      MOSUNNY   85  69  58 NE15      30.11F

STATION/POSITION SKY/WX   TEMP    WIND        PRES    WAVE   SWELL
                          AIR SEA DIR/SP/G            HT/PER HT/PER
                          (F)     (DEG/KT/KT) (MB)    (FT/S) (FT/S)
PORT EVERGLADES            82      70/ 10/ 13 1020.4F
VIRGINIA KEY               80 83   70/ 14/ 16 1020.2R
LAKE WORTH                 80 83   70/  9/ 11 1021.1F
SETTLEMENT POINT           80      70/ 17/ 18 1021.5F

$$



USA.gov is the U.S. government's official web portal to all federal, state and local government web resources and services.